| time (UTC) | temp F | wind direction | speed knots | gust knots | rain 1hr in | rain 24hr in | rain mn in | humidity % | barometer mb |
| 20260505035555 | 47 | 298 | 3.5 | 7.8 | 0.00 | 0.04 | 0.04 | 64 | 1011.0 |
| 20260505035057 | 48 | 298 | 3.5 | 7.8 | 0.00 | 0.04 | 0.04 | 63 | 1011.0 |
| 20260505034556 | 48 | 290 | 3.5 | 7.0 | 0.00 | 0.04 | 0.04 | 63 | 1010.9 |
| 20260505034052 | 48 | 311 | 3.5 | 7.0 | 0.00 | 0.04 | 0.04 | 63 | 1010.9 |
| 20260505033554 | 48 | 339 | 2.6 | 6.1 | 0.00 | 0.04 | 0.04 | 63 | 1011.0 |
| 20260505033100 | 48 | 335 | 2.6 | 7.0 | 0.00 | 0.04 | 0.04 | 62 | 1010.7 |
| 20260505032553 | 49 | 286 | 2.6 | 7.0 | 0.00 | 0.04 | 0.04 | 62 | 1010.7 |
| 20260505032058 | 49 | 328 | 2.6 | 6.1 | 0.00 | 0.04 | 0.04 | 61 | 1010.7 |
| 20260505031555 | 49 | 323 | 2.6 | 6.1 | 0.00 | 0.04 | 0.04 | 62 | 1010.6 |
| 20260505031054 | 49 | 292 | 3.5 | 6.1 | 0.00 | 0.04 | 0.04 | 60 | 1010.6 |
| 20260505030558 | 49 | 273 | 2.6 | 6.1 | 0.00 | 0.04 | 0.04 | 61 | 1010.5 |
| 20260505030057 | 50 | 288 | 2.6 | 7.0 | 0.00 | 0.04 | 0.04 | 60 | 1010.4 |
| 20260505025554 | 49 | 277 | 3.5 | 7.0 | 0.00 | 0.04 | 0.04 | 59 | 1010.4 |
| 20260505025053 | 49 | 342 | 3.5 | 7.0 | 0.00 | 0.04 | 0.04 | 60 | 1010.3 |
| 20260505024554 | 49 | 312 | 3.5 | 7.0 | 0.00 | 0.04 | 0.04 | 61 | 1010.2 |
| 20260505024054 | 49 | 300 | 3.5 | 6.1 | 0.00 | 0.04 | 0.04 | 61 | 1010.3 |
| 20260505023552 | 50 | 289 | 2.6 | 6.1 | 0.00 | 0.04 | 0.04 | 60 | 1010.2 |
| 20260505023054 | 50 | 282 | 1.7 | 3.5 | 0.00 | 0.04 | 0.04 | 60 | 1010.2 |
| 20260505022552 | 50 | 305 | 0.9 | 3.5 | 0.00 | 0.04 | 0.04 | 60 | 1010.2 |
| 20260505022057 | 50 | 275 | 1.7 | 3.5 | 0.00 | 0.04 | 0.04 | 59 | 1010.2 |
| 20260505021553 | 51 | 257 | 1.7 | 3.5 | 0.00 | 0.04 | 0.04 | 59 | 1010.2 |
| 20260505021055 | 51 | 244 | 1.7 | 3.5 | 0.00 | 0.04 | 0.04 | 58 | 1010.2 |
| 20260505020554 | 52 | 221 | 1.7 | 3.5 | 0.00 | 0.04 | 0.04 | 60 | 1010.3 |
| 20260505020054 | 52 | 265 | 1.7 | 4.3 | 0.00 | 0.04 | 0.04 | 57 | 1010.1 |
| 20260505015554 | 53 | 279 | 1.7 | 5.2 | 0.00 | 0.04 | 0.04 | 57 | 1010.1 |
| 20260505015054 | 53 | 269 | 2.6 | 5.2 | 0.00 | 0.04 | 0.04 | 55 | 1010.2 |
| 20260505014556 | 54 | 239 | 0.9 | 5.2 | 0.00 | 0.04 | 0.04 | 55 | 1010.2 |
| 20260505014054 | 54 | 292 | 0.9 | 7.0 | 0.00 | 0.04 | 0.04 | 51 | 1010.2 |
| 20260505013554 | 54 | 329 | 2.6 | 7.0 | 0.00 | 0.04 | 0.04 | 50 | 1010.3 |
| 20260505013054 | 54 | 317 | 2.6 | 7.0 | 0.00 | 0.04 | 0.04 | 50 | 1010.4 |
| 20260505012554 | 54 | 251 | 2.6 | 6.1 | 0.00 | 0.04 | 0.04 | 48 | 1010.4 |
| 20260505012055 | 55 | 261 | 3.5 | 7.0 | 0.00 | 0.04 | 0.04 | 47 | 1010.2 |
| 20260505011600 | 55 | 257 | 3.5 | 8.7 | 0.00 | 0.04 | 0.04 | 47 | 1010.3 |
| 20260505011055 | 55 | 228 | 3.5 | 10.4 | 0.00 | 0.04 | 0.04 | 49 | 1010.3 |
| 20260505010554 | 55 | 271 | 5.2 | 10.4 | 0.00 | 0.04 | 0.04 | 50 | 1010.3 |
| 20260505010104 | 55 | 243 | 5.2 | 10.4 | 0.00 | 0.04 | 0.04 | 51 | 1010.4 |
| 20260505005555 | 55 | 284 | 5.2 | 10.4 | 0.00 | 0.04 | 0.04 | 52 | 1010.6 |
| 20260505005057 | 55 | 257 | 3.5 | 10.4 | 0.00 | 0.04 | 0.04 | 53 | 1010.7 |
| 20260505004552 | 54 | 279 | 5.2 | 10.4 | 0.00 | 0.04 | 0.04 | 54 | 1010.7 |
| 20260505004055 | 54 | 252 | 5.2 | 10.4 | 0.00 | 0.04 | 0.04 | 56 | 1010.7 |
| 20260505003554 | 54 | 239 | 5.2 | 9.6 | 0.00 | 0.04 | 0.04 | 54 | 1010.7 |
| 20260505003056 | 53 | 221 | 4.3 | 8.7 | 0.00 | 0.04 | 0.04 | 54 | 1010.9 |
| 20260505002554 | 53 | 268 | 5.2 | 8.7 | 0.00 | 0.04 | 0.04 | 55 | 1010.9 |
| 20260505002054 | 52 | 232 | 1.7 | 12.2 | 0.00 | 0.04 | 0.04 | 56 | 1011.1 |
| 20260505001554 | 52 | 323 | 1.7 | 12.2 | 0.01 | 0.04 | 0.04 | 54 | 1011.3 |
| 20260505001051 | 51 | 296 | 6.1 | 12.2 | 0.01 | 0.04 | 0.04 | 53 | 1011.3 |
| 20260505000551 | 51 | 314 | 5.2 | 11.3 | 0.02 | 0.04 | 0.04 | 58 | 1011.6 |
| 20260505000101 | 50 | 309 | 2.6 | 9.6 | 0.03 | 0.04 | 0.04 | 62 | 1011.9 |
| 20260504235555 | 49 | 273 | 4.3 | 9.6 | 0.03 | 0.04 | 0.04 | 65 | 1012.1 |
| 20260504235055 | 49 | 273 | 5.2 | 8.7 | 0.04 | 0.04 | 0.04 | 68 | 1012.3 |
| 20260504234605 | 49 | 261 | 5.2 | 13.0 | 0.04 | 0.04 | 0.04 | 68 | 1012.4 |
| 20260504234057 | 48 | 282 | 5.2 | 13.0 | 0.04 | 0.04 | 0.04 | 68 | 1012.4 |
| 20260504233554 | 48 | 282 | 6.1 | 15.6 | 0.04 | 0.04 | 0.04 | 68 | 1012.5 |
| 20260504233059 | 48 | 282 | 7.8 | 15.6 | 0.04 | 0.04 | 0.04 | 69 | 1012.6 |
| 20260504232555 | 48 | 261 | 9.6 | 17.4 | 0.04 | 0.04 | 0.04 | 70 | 1012.4 |
| 20260504232056 | 48 | 277 | 8.7 | 17.4 | 0.04 | 0.04 | 0.04 | 70 | 1012.5 |
| 20260504231553 | 48 | 257 | 10.4 | 21.7 | 0.03 | 0.03 | 0.03 | 70 | 1012.5 |
| 20260504231055 | 49 | 273 | 10.4 | 22.6 | 0.03 | 0.03 | 0.03 | 68 | 1012.5 |
| 20260504230554 | 50 | 275 | 13.9 | 22.6 | 0.02 | 0.02 | 0.02 | 65 | 1012.6 |
| 20260504230055 | 50 | 290 | 11.3 | 24.3 | 0.01 | 0.01 | 0.01 | 63 | 1012.6 |
| 20260504225552 | 51 | 296 | 13.9 | 24.3 | 0.01 | 0.01 | 0.01 | 62 | 1012.3 |
| 20260504225057 | 51 | 284 | 11.3 | 21.7 | 0.00 | 0.00 | 0.00 | 59 | 1012.2 |
| 20260504224554 | 51 | 252 | 10.4 | 20.0 | 0.00 | 0.00 | 0.00 | 60 | 1011.7 |
| 20260504224055 | 52 | 225 | 9.6 | 18.2 | 0.00 | 0.00 | 0.00 | 58 | 1011.6 |
| 20260504223555 | 52 | 298 | 6.1 | 16.5 | 0.00 | 0.00 | 0.00 | 56 | 1011.6 |
| 20260504223055 | 53 | 271 | 7.0 | 16.5 | 0.00 | 0.00 | 0.00 | 53 | 1011.6 |
| 20260504222555 | 54 | 261 | 10.4 | 16.5 | 0.00 | 0.00 | 0.00 | 52 | 1011.7 |
| 20260504222058 | 55 | 255 | 7.8 | 18.2 | 0.00 | 0.00 | 0.00 | 51 | 1011.6 |
| 20260504221551 | 56 | 86 | 7.0 | 18.2 | 0.00 | 0.00 | 0.00 | 51 | 1011.4 |
| 20260504221054 | 56 | 141 | 9.6 | 19.1 | 0.00 | 0.00 | 0.00 | 48 | 1011.2 |
| 20260504220554 | 57 | 163 | 7.0 | 19.1 | 0.00 | 0.00 | 0.00 | 46 | 1011.2 |
| 20260504215552 | 58 | 115 | 7.0 | 18.2 | 0.00 | 0.00 | 0.00 | 44 | 1011.1 |
| 20260504215051 | 59 | 154 | 7.8 | 18.2 | 0.00 | 0.00 | 0.00 | 42 | 1011.2 |
| 20260504214600 | 60 | 157 | 7.8 | 18.2 | 0.00 | 0.00 | 0.00 | 43 | 1011.1 |
| 20260504214053 | 61 | 171 | 8.7 | 18.2 | 0.00 | 0.00 | 0.00 | 39 | 1011.2 |
| 20260504213552 | 62 | 34 | 8.7 | 18.2 | 0.00 | 0.00 | 0.00 | 37 | 1011.4 |
| 20260504213111 | 64 | 138 | 5.2 | 15.6 | 0.00 | 0.00 | 0.00 | 32 | 1011.5 |
| 20260504212555 | 64 | 74 | 2.6 | 7.8 | 0.00 | 0.00 | 0.00 | 30 | 1011.1 |
| 20260504212055 | 64 | 78 | 2.6 | 12.2 | 0.00 | 0.00 | 0.00 | 30 | 1011.1 |
| 20260504211556 | 64 | 239 | 2.6 | 12.2 | 0.00 | 0.00 | 0.00 | 28 | 1011.1 |
| 20260504211054 | 65 | 38 | 3.5 | 12.2 | 0.00 | 0.00 | 0.00 | 31 | 1011.2 |
| 20260504210554 | 65 | 66 | 3.5 | 12.2 | 0.00 | 0.00 | 0.00 | 30 | 1011.3 |
| 20260504210104 | 65 | 9 | 2.6 | 12.2 | 0.00 | 0.00 | 0.00 | 30 | 1011.4 |
| 20260504205555 | 66 | 29 | 5.2 | 12.2 | 0.00 | 0.00 | 0.00 | 31 | 1011.5 |
| 20260504205054 | 65 | 169 | 4.3 | 12.2 | 0.00 | 0.00 | 0.00 | 30 | 1011.5 |
| 20260504204605 | 64 | 69 | 3.5 | 12.2 | 0.00 | 0.00 | 0.00 | 32 | 1011.5 |
| 20260504204054 | 63 | 69 | 2.6 | 13.0 | 0.00 | 0.00 | 0.00 | 32 | 1011.5 |
| 20260504203552 | 62 | 16 | 4.3 | 13.0 | 0.00 | 0.00 | 0.00 | 33 | 1011.5 |
| 20260504203058 | 62 | 111 | 7.0 | 13.0 | 0.00 | 0.00 | 0.00 | 31 | 1011.6 |
| 20260504202555 | 63 | 22 | 6.1 | 13.0 | 0.00 | 0.00 | 0.00 | 31 | 1011.7 |
| 20260504202057 | 63 | 335 | 4.3 | 18.2 | 0.00 | 0.00 | 0.00 | 32 | 1011.7 |
| 20260504201553 | 63 | 47 | 6.1 | 18.2 | 0.00 | 0.00 | 0.00 | 33 | 1011.8 |
| 20260504201055 | 64 | 27 | 6.1 | 16.5 | 0.00 | 0.00 | 0.00 | 32 | 1011.6 |
| 20260504200555 | 64 | 344 | 7.0 | 16.5 | 0.00 | 0.00 | 0.00 | 30 | 1011.7 |
| 20260504200059 | 65 | 344 | 7.0 | 16.5 | 0.00 | 0.00 | 0.00 | 29 | 1011.8 |
| 20260504195554 | 66 | 57 | 9.6 | 16.5 | 0.00 | 0.00 | 0.00 | 29 | 1011.8 |
| 20260504195054 | 65 | 44 | 7.8 | 16.5 | 0.00 | 0.00 | 0.00 | 29 | 1011.8 |
| 20260504194559 | 65 | 53 | 3.5 | 13.9 | 0.00 | 0.00 | 0.00 | 30 | 1011.8 |
| 20260504194054 | 64 | 339 | 6.1 | 13.9 | 0.00 | 0.00 | 0.00 | 31 | 1011.8 |
| 20260504193554 | 64 | 25 | 3.5 | 14.8 | 0.00 | 0.00 | 0.00 | 32 | 1011.8 |
| 20260504193113 | 63 | 344 | 6.1 | 14.8 | 0.00 | 0.00 | 0.00 | 32 | 1012.0 |
| 20260504192553 | 62 | 21 | 4.3 | 15.6 | 0.00 | 0.00 | 0.00 | 34 | 1012.0 |
| 20260504192054 | 62 | 45 | 4.3 | 15.6 | 0.00 | 0.00 | 0.00 | 33 | 1012.0 |
| 20260504191559 | 62 | 30 | 5.2 | 15.6 | 0.00 | 0.00 | 0.00 | 32 | 1011.9 |
| 20260504191052 | 62 | 22 | 1.7 | 7.0 | 0.00 | 0.00 | 0.00 | 31 | 1012.1 |
| 20260504190555 | 62 | 360 | 2.6 | 7.0 | 0.00 | 0.00 | 0.00 | 30 | 1012.0 |
| 20260504190107 | 61 | 254 | 1.7 | 6.1 | 0.00 | 0.00 | 0.00 | 33 | 1012.1 |
| 20260504185554 | 60 | 178 | 0.9 | 9.6 | 0.00 | 0.00 | 0.00 | 32 | 1012.2 |
| 20260504185054 | 60 | 153 | 2.6 | 9.6 | 0.00 | 0.00 | 0.00 | 31 | 1012.4 |
| 20260504184556 | 61 | 230 | 2.6 | 15.6 | 0.00 | 0.00 | 0.00 | 32 | 1012.4 |
| 20260504184057 | 61 | 229 | 3.5 | 15.6 | 0.00 | 0.00 | 0.00 | 31 | 1012.3 |
| 20260504183555 | 62 | 93 | 4.3 | 16.5 | 0.00 | 0.00 | 0.00 | 31 | 1012.4 |
| 20260504183101 | 61 | 102 | 6.1 | 16.5 | 0.00 | 0.00 | 0.00 | 32 | 1012.3 |
| 20260504182554 | 61 | 167 | 7.0 | 16.5 | 0.00 | 0.00 | 0.00 | 32 | 1012.4 |
| 20260504182052 | 61 | 120 | 6.1 | 10.4 | 0.00 | 0.00 | 0.00 | 33 | 1012.5 |
| 20260504181559 | 61 | 153 | 3.5 | 8.7 | 0.00 | 0.00 | 0.00 | 36 | 1012.5 |
| 20260504181052 | 61 | 120 | 2.6 | 8.7 | 0.00 | 0.00 | 0.00 | 35 | 1012.5 |
| 20260504180557 | 61 | 171 | 3.5 | 8.7 | 0.00 | 0.00 | 0.00 | 34 | 1012.5 |
| 20260504180138 | 61 | 155 | 5.2 | 8.7 | 0.00 | 0.00 | 0.00 | 35 | 1012.5 |
| 20260504175555 | 62 | 138 | 3.5 | 7.8 | 0.00 | 0.00 | 0.00 | 34 | 1012.5 |
| 20260504175055 | 63 | 159 | 2.6 | 7.8 | 0.00 | 0.00 | 0.00 | 33 | 1012.5 |
| 20260504174555 | 63 | 193 | 2.6 | 6.1 | 0.00 | 0.00 | 0.00 | 31 | 1012.5 |
| 20260504174055 | 63 | 0 | 0.9 | 6.1 | 0.00 | 0.00 | 0.00 | 30 | 1012.5 |
| 20260504173555 | 63 | 178 | 1.7 | 6.1 | 0.00 | 0.00 | 0.00 | 31 | 1012.5 |
| 20260504173056 | 64 | 141 | 1.7 | 5.2 | 0.00 | 0.00 | 0.00 | 32 | 1012.5 |
| 20260504172555 | 64 | 139 | 0.9 | 8.7 | 0.00 | 0.00 | 0.00 | 30 | 1012.5 |
| 20260504172056 | 64 | 149 | 0.9 | 8.7 | 0.00 | 0.00 | 0.00 | 29 | 1012.6 |
| 20260504171558 | 64 | 53 | 4.3 | 8.7 | 0.00 | 0.00 | 0.00 | 29 | 1012.5 |
| 20260504171054 | 64 | 32 | 1.7 | 7.8 | 0.00 | 0.00 | 0.00 | 30 | 1012.5 |
| 20260504170555 | 64 | 76 | 4.3 | 7.8 | 0.00 | 0.00 | 0.00 | 32 | 1012.6 |
| 20260504151052 | 51 | 45 | 2.6 | 6.1 | 0.00 | 0.00 | 0.00 | 46 | 1013.4 |
| 20260504150553 | 50 | 49 | 1.7 | 4.3 | 0.00 | 0.00 | 0.00 | 46 | 1013.5 |
| 20260504141052 | 44 | 205 | 0.9 | 1.7 | 0.00 | 0.00 | 0.00 | 61 | 1013.9 |
| 20260504140552 | 43 | 83 | 0.0 | 2.6 | 0.00 | 0.00 | 0.00 | 62 | 1013.9 |
| 20260504140103 | 42 | 105 | 0.9 | 2.6 | 0.00 | 0.00 | 0.00 | 64 | 1013.8 |
| 20260504130553 | 37 | 255 | 1.7 | 4.3 | 0.00 | 0.00 | 0.00 | 62 | 1013.8 |
| 20260504120105 | 37 | 279 | 0.9 | 2.6 | 0.00 | 0.00 | 0.00 | 63 | 1013.4 |
| 20260504110552 | 38 | 22 | 0.0 | 2.6 | 0.00 | 0.00 | 0.00 | 62 | 1013.4 |
| 20260504100551 | 37 | 284 | 0.9 | 2.6 | 0.00 | 0.00 | 0.00 | 62 | 1013.5 |
| 20260504100114 | 37 | 321 | 0.9 | 1.7 | 0.00 | 0.00 | 0.00 | 62 | 1013.5 |
| 20260504081558 | 41 | 0 | 0.0 | 2.6 | 0.00 | 0.00 | 0.00 | 53 | 1013.4 |
| 20260504081051 | 41 | 0 | 0.9 | 3.5 | 0.00 | 0.00 | 0.00 | 52 | 1013.3 |
| 20260504080551 | 41 | 316 | 0.9 | 3.5 | 0.00 | 0.00 | 0.00 | 49 | 1013.5 |
| 20260504060159 | 44 | 229 | 1.7 | 3.5 | 0.00 | 0.00 | 0.00 | 46 | 1014.1 |
| 20260504050550 | 48 | 254 | 1.7 | 3.5 | 0.00 | 0.00 | 0.00 | 39 | 1014.4 |
| 20260504050105 | 49 | 265 | 1.7 | 4.3 | 0.00 | 0.00 | 0.00 | 39 | 1014.5 |
| 20260504045552 | 49 | 273 | 0.9 | 4.3 | 0.00 | 0.00 | 0.00 | 39 | 1014.4 |
| 20260504045051 | 49 | 301 | 2.6 | 4.3 | 0.00 | 0.00 | 0.00 | 38 | 1014.5 |
| 20260504044559 | 49 | 215 | 1.7 | 3.5 | 0.00 | 0.00 | 0.00 | 39 | 1014.6 |
| 20260504044052 | 50 | 280 | 1.7 | 5.2 | 0.00 | 0.00 | 0.00 | 37 | 1014.5 |
| 20260504043557 | 50 | 292 | 1.7 | 5.2 | 0.00 | 0.00 | 0.00 | 37 | 1014.6 |
| 20260504043101 | 50 | 255 | 0.9 | 3.5 | 0.00 | 0.00 | 0.00 | 37 | 1014.6 |
| 20260504042553 | 50 | 265 | 0.9 | 3.5 | 0.00 | 0.00 | 0.00 | 38 | 1014.5 |
| 20260504042056 | 50 | 265 | 1.7 | 3.5 | 0.00 | 0.00 | 0.00 | 37 | 1014.5 |
| 20260504041557 | 50 | 250 | 0.9 | 5.2 | 0.00 | 0.00 | 0.00 | 37 | 1014.6 |
| 20260504041053 | 51 | 259 | 1.7 | 5.2 | 0.00 | 0.00 | 0.00 | 36 | 1014.6 |
| 20260504040552 | 51 | 279 | 1.7 | 3.5 | 0.00 | 0.00 | 0.00 | 38 | 1014.5 |
| 20260504040104 | 51 | 279 | 1.7 | 6.1 | 0.00 | 0.00 | 0.00 | 37 | 1014.6 |